Flag Weather past 2 weeks in Aurich, Lower Saxony, Germany

Now
55 °F

Fog.


Feels Like: 53 °F
Forecast: 52 / 63 °F
Wind: 8 mph from Southwest

Location: Wittmundhaven

Current Time: Oct 31, 2014 at 11:09:15 AM

Latest Report: Oct 31, 2014 at 10:20 AM


Visibility: 3 mi

Pressure: 30.18 "Hg

Humidity: 94%

Dew point: 54 °F

Location of AurichLocation

Historic Weather in Aurich — Graph

°F

Aurich temperature yesterday

Maximum temperature yesterday: 54 °F (at 9:20 PM)
Minimum temperature yesterday: 36 °F (at 2:20 AM)
Average temperature yesterday: 45 °F

Past Weeks' High & Low Weather Summary

 TemperatureHumidityPressure
High68 °F (Oct 19, 12:20 PM)100% (Oct 16, 10:20 AM)30.24 "Hg (Oct 16, 10:20 AM)
Low36 °F (Oct 30, 2:20 AM)58% (Oct 22, 10:20 PM)29.33 "Hg (Oct 21, 4:20 PM)
Average53 °F88%29.97 "Hg
* Reported Oct 16 10:20 AM — Oct 31 9:49 AM, Aurich, Weather by CustomWeather, © 2014

Note: Actual official high and low records may vary slightly from our data, if they occured in-between our weather recording intervals... More about our weather records

Advertising

Aurich weather history for previous 24 hours

 ConditionsComfort  
Time TempWeatherWind HumidityBarometerVisibility
9:49 AM
Oct 31
54 °FFog.6 mph94%30.18 "Hg2 mi
9:20 AM52 °FFog.6 mph100%30.15 "Hg2 mi
9:00 AM52 °FFog.6 mph100%30.15 "Hg1 mi
8:20 AM52 °FFog.7 mph100%30.15 "Hg0 mi
7:20 AM52 °FFog.5 mph100%30.15 "Hg0 mi
6:20 AM52 °FFog.6 mph100%30.15 "Hg0 mi
5:20 AM50 °FFog.5 mph100%30.15 "Hg0 mi
4:20 AM50 °FFog.3 mph94%30.15 "Hg0 mi
3:20 AM50 °FFog.6 mph100%30.15 "Hg1 mi
2:20 AM50 °FFog.5 mph100%30.15 "Hg1 mi
1:20 AM52 °FFog.5 mph94%30.18 "Hg2 mi
12:20 AM52 °FFog.5 mph94%30.18 "Hg2 mi
11:20 PM
Oct 30
52 °FFog.5 mph100%30.18 "Hg3 mi
10:20 PM54 °FFog.8 mph94%30.18 "Hg3 mi
9:20 PM54 °FFog.9 mph94%30.18 "Hg2 mi
8:20 PM52 °FFog.8 mph94%30.18 "Hg3 mi
7:49 PM52 °FFog.8 mph94%30.18 "Hg3 mi
7:20 PM52 °FFog.7 mph94%30.18 "Hg3 mi
6:20 PM52 °FFog.7 mph88%30.21 "Hg2 mi
5:20 PM50 °FFog.8 mph94%30.21 "Hg2 mi
4:20 PM52 °FFog.7 mph88%30.21 "Hg2 mi
3:20 PM52 °FFog.7 mph88%30.21 "Hg2 mi
2:20 PM50 °FFog.9 mph88%30.21 "Hg3 mi
1:20 PM50 °FFog.7 mph88%30.24 "Hg3 mi
12:50 PM48 °FFog.6 mph94%30.24 "Hg2 mi
12:20 PM48 °FFog.7 mph94%30.24 "Hg2 mi
11:46 AM50 °FFog.8 mph88%30.24 "Hg2 mi
11:20 AM48 °FFog.7 mph87%30.24 "Hg3 mi
Weather by CustomWeather, © 2014

See weather overviewHow to use our weather pages